SCP
0 0 0 0 0 0 0 0 0 0 0 0 0 0 0 0 0 0 0 0 0 0 0 0 0 0 0 0 0 0 0 0 0 0 0 0 0 0 0 0 0 0 0 0 -0
0 0 0 0 0 0 0 0 0 0 0 0 0 0 0 0 0 0 0 0 0 0 0 0 0 0 0 0 0 0 0 0 0 0 0 0 0 0 0 0 0 0 0 0 -0
0 0 0 0 0 0 0 0 0 0 0 0 0 0 0 0 0 0 0 0 0 0 0 0 0 0 0 0 0 0 0 0 0 0 0 0 0 0 0 0 0 0 0 0 0
0 0 0 0 0 0 0 0 0 0 0 0 0 0 0 0 0 0 0 0 0 0 0 0 0 0 0 0 0 0 0 0 0 0 0 0 0 0 0 0 0 0 0 -0 -0
0 0 0 0 0 0 0 0 0 0 0 0 0 0 0 0 0 0 0 0 0 0 0 0 0 0 0 0 0 0 0 0 0 0 0 0 0 0 0 0 0 0 0 0 0
0 0 0 0 0 0 0 0 0 0 0 0 0 0 0 0 0 0 0 0 0 0 0 0 0 0 0 0 0 0 0 0 0 0 0 0 0 0 0 0 0 0 0 0 0
0 0 -0 0 0 0 0 0 0 0 0 0 0 0 0 0 0 0 0 0 0 0 0 0 0 0 0 0 0 0 0 0 0 0 0 0 0 0 0 0 0 0 0 0 0
0 0 -0 -0 0 0 0 0 0 0 0 0 0 0 0 0 0 0 0 0 0 0 0 0 0 0 0 0 0 0 0 0 0 0 0 0 0 0 0 0 0 0 0 0 0
0 0 0 0 0 0 0 0 0 0 0 0 0 0 0 0 0 0 0 0 0 0 0 0 0 0 0 0 0 0 0 0 0 0 0 0 0 0 0 0 0 0 0 0 0
0 0 -0 0 0 0 0 0 0 0 0 0 0 0 0 0 0 0 0 0 0 0 0 0 0 0 0 0 0 0 0 0 0 0 0 0 0 0 0 0 0 0 0 0 0
0 0 -0 0 0 -0 0 0 0 0 0 0 0 0 0 0 0 0 0 0 0 0 0 0 0 0 0 0 0 0 0 0 0 0 0 0 0 0 0 0 0 0 0 0 0
0 0 0 -0 0 0 0 0 0 0 0 0 0 0 0 0 0 0 0 0 0 0 0 0 0 0 0 0 0 0 0 0 0 0 0 0 0 0 0 0 0 0 0 0 0
0 0 0 -0 -0 -0 0 0 0 0 0 0 0 0 0 0 0 0 0 0 0 0 0 0 0 0 0 0 0 0 0 0 0 0 0 0 0 0 0 0 0 0 0 0 0
0 0 -0 -0 -0 -0 0 0 0 0 0 0 0 0 0 0 0 0 0 0 0 0 0 0 0 0 0 0 0 0 0 0 0 0 0 0 0 0 0 0 0 0 0 0 0
0 0 -0 -0 -0 -0 -0 0 0 0 0 0 0 0 0 0 0 0 0 0 0 0 0 0 0 0 0 0 0 0 0 0 0 0 0 0 0 0 0 0 0 0 0 0 0
0 0 0 -0 -0 -0 -0 -0 0 0 0 0 0 0 0 0 0 0 0 0 0 0 0 0 0 0 0 0 0 0 0 0 0 0 0 0 0 0 0 0 0 0 0 0 0
0 0 -0 -0 -0 -0 -0 -0 0 0 0 0 0 0 0 0 0 0 0 0 0 0 0 0 0 0 0 0 0 0 0 0 0 0 0 0 0 0 0 0 0 0 0 0 0
0 -0 -0 0 0 0 -0 -0 0 0 0 0 0 0 0 0 0 0 0 0 0 0 0 0 0 0 0 0 0 0 0 0 0 0 0 0 0 0 0 0 0 0 0 0 0
0 0 0 -0 -0 0 -0 -0 0 0 0 0 0 0 0 0 0 0 0 0 0 0 0 0 0 0 0 0 0 0 0 0 0 0 0 0 0 0 0 0 0 0 0 0 0
-0 0 -0 0 0 0 -0 -0 -0 0 0 0 0 0 0 0 0 0 0 0 0 0 0 0 0 0 0 0 0 0 0 0 0 0 0 0 0 0 0 0 0 0 0 0 0
0 0 -0 0 0 0 -0 -0 -0 0 0 0 0 0 0 0 0 0 0 0 0 0 0 0 0 0 0 0 0 0 0 0 0 0 0 0 0 0 0 0 0 0 0 0 0
0 0 0 0 -0 -0 -0 -0 -0 0 0 0 0 0 0 0 0 0 0 0 0 0 0 0 0 0 0 0 0 0 0 0 0 0 0 0 0 0 0 0 0 0 0 0 0
0 0 0 0 0 -0 -0 -0 -0 -0 0 0 0 0 0 0 0 0 0 0 0 0 0 0 0 0 0 0 0 0 0 0 0 0 0 0 0 0 0 0 0 0 0 0 0
0 -0 -0 0 0 0 0 0 -0 0 0 0 0 0 0 0 0 0 0 0 0 0 0 0 0 0 0 0 0 0 0 0 0 0 0 0 0 0 0 0 0 0 0 0 0
0 -0 0 -0 0 0 0 0 0 0 0 0 0 0 0 0 0 0 0 0 0 0 0 0 0 0 0 0 0 0 0 0 0 0 0 0 0 0 0 0 0 0 0 0 0
-0 -0 0 0 0 0 0 -0 0 0 0 0 0 0 0 0 0 0 0 0 0 0 0 0 0 0 0 0 0 0 0 0 0 0 0 0 0 0 0 0 0 0 0 0 0
0 0 0 0 0 0 0 0 0 0 0 0 0 0 0 0 0 0 0 0 0 0 0 0 0 0 0 0 0 0 0 0 0 0 0 0 0 0 0 0 0 0 0 0 0
Wind_Speed_500mb
36 30 39 40 40 37 40 38 27 20 24 22 19 20 22 25 25 31 39 25 34 20 28 24 27 28 26 17 12 10 8 6 11 13 7 18 11 12 9 10 14 18 6 6 35
34 40 30 39 40 40 37 39 40 26 20 24 20 19 20 26 26 41 25 26 25 29 31 32 35 33 17 15 12 8 7 17 10 10 8 18 13 21 10 11 12 17 16 12 34
47 34 45 32 36 41 39 36 39 40 23 20 21 18 18 20 19 29 37 32 35 31 28 29 32 25 10 16 12 11 10 10 11 10 12 17 10 15 15 6 19 27 29 24 36
41 59 56 44 40 34 43 40 34 39 37 21 18 17 18 20 14 10 26 41 39 36 33 36 40 19 11 13 17 10 8 14 12 13 12 14 12 8 19 4 5 13 23 30 38
35 37 49 41 39 45 37 42 36 33 38 31 19 16 20 19 25 10 23 45 44 40 39 38 45 19 11 13 15 9 11 14 10 13 9 10 4 4 9 14 19 7 22 34 36
34 38 48 53 30 36 44 43 38 34 32 36 26 18 25 12 22 23 27 45 44 40 44 39 27 21 12 13 7 26 17 14 11 8 5 6 4 3 3 16 18 20 14 27 36
33 33 37 64 51 25 46 39 39 36 30 32 32 21 26 40 14 24 32 43 43 38 43 41 14 19 20 10 11 19 10 4 5 9 5 7 2 3 14 11 7 13 20 23 32
34 34 36 41 50 40 40 38 35 36 31 26 30 22 18 27 39 25 35 41 44 40 34 37 24 14 4 23 10 7 8 8 3 11 4 8 5 6 19 14 20 8 4 21 29
35 38 37 33 45 44 35 38 31 36 30 24 25 20 13 21 34 38 36 36 39 36 32 32 29 12 13 12 8 9 8 7 5 12 7 6 7 10 19 13 13 7 3 5 16
36 37 38 36 34 47 24 38 26 32 28 19 18 15 30 24 35 49 43 35 35 39 33 23 11 7 5 7 14 15 9 5 9 13 6 9 8 4 17 16 13 10 3 7 11
32 34 38 47 35 40 33 22 16 15 40 23 28 11 2 32 28 45 51 52 39 33 12 12 8 17 22 13 4 12 10 10 1 5 6 10 7 3 10 13 17 15 8 3 15
31 34 36 39 43 35 41 18 32 6 13 58 25 55 15 23 14 42 56 29 22 12 14 8 22 13 15 11 9 9 9 5 5 5 4 4 9 4 7 7 11 13 13 7 7
33 33 34 33 38 35 27 45 28 33 8 17 76 49 35 30 13 50 63 25 10 16 17 16 6 27 15 11 15 5 13 10 11 6 6 2 10 6 1 8 11 16 15 15 9
32 32 33 32 32 24 30 34 42 11 7 11 23 34 40 26 10 37 68 24 7 18 16 8 6 21 15 13 13 13 12 14 17 8 6 4 8 7 6 4 6 12 17 19 19
31 32 34 32 32 33 46 41 21 20 9 16 21 19 52 34 32 27 67 16 16 14 16 15 18 18 10 12 13 9 13 14 9 10 8 2 5 7 3 9 7 7 13 17 21
30 32 32 31 34 34 36 50 27 12 18 11 17 20 24 12 11 20 27 15 15 9 8 5 4 8 11 9 8 25 16 16 10 7 1 11 11 9 11 12 10 10 14 19 24
33 35 34 32 26 30 39 45 7 14 8 13 13 24 42 16 11 13 21 15 14 12 8 4 5 2 11 18 10 5 12 5 5 2 10 3 8 15 6 7 14 25 26 25 28
33 40 44 42 43 36 4 7 8 3 17 3 14 35 35 25 5 16 28 28 10 11 10 14 5 15 8 10 20 14 11 12 15 10 7 3 13 11 4 12 34 36 35 34 33
44 45 47 42 16 31 19 4 9 4 9 15 15 42 9 9 15 13 21 36 26 20 15 12 8 3 3 7 11 12 9 10 14 5 5 8 11 3 9 11 27 37 39 39 39
54 50 23 11 12 36 5 17 13 14 24 7 11 17 22 31 12 15 26 16 16 20 5 16 9 3 5 9 7 7 16 7 3 12 9 6 7 10 24 26 23 27 39 42 42
42 27 9 10 25 17 7 16 21 37 35 14 7 9 12 27 15 32 33 4 17 21 4 9 9 3 6 13 18 7 6 6 10 7 11 7 12 7 18 34 35 36 49 53 49
27 7 8 16 7 6 12 11 12 17 36 19 6 8 18 35 19 22 27 33 46 33 24 12 11 9 11 1 1 2 11 11 10 10 2 5 11 3 4 31 52 49 58 54 50
12 22 13 17 6 6 7 13 12 11 18 15 12 7 8 18 14 8 26 2 37 36 41 20 7 8 7 8 5 7 10 9 9 7 15 12 10 6 9 31 50 56 60 58 53
13 7 10 10 12 8 10 24 16 30 17 15 12 5 9 9 6 23 10 3 9 19 14 30 8 21 27 11 14 12 12 10 11 6 10 13 9 7 16 30 43 57 71 64 57
6 8 10 9 7 16 8 11 20 16 23 28 9 27 13 10 8 10 8 7 7 12 8 13 15 9 4 11 10 13 22 29 24 35 18 18 21 18 36 39 58 59 68 66 57
9 11 11 19 27 19 19 10 26 27 26 15 15 9 9 16 18 18 19 11 13 5 10 3 7 7 3 8 10 9 14 38 47 26 5 11 9 5 31 42 50 65 71 66 61
31 34 16 16 7 12 4 7 15 20 10 9 17 12 8 8 7 22 17 20 23 22 9 12 11 6 7 3 9 5 19 25 14 9 28 19 14 14 23 40 62 67 72 75 66
Wind_Direction_500mb
269 264 258 263 253 248 258 250 249 234 242 241 241 244 245 236 231 229 227 218 213 197 192 189 181 171 165 161 150 141 74 175 196 159 207 161 171 179 186 160 180 187 188 168 177
274 262 260 253 263 254 248 259 251 245 234 239 247 245 240 239 242 243 215 214 206 205 197 184 178 165 160 154 156 113 123 206 195 188 189 177 179 170 161 171 201 198 202 186 176
286 286 266 270 256 263 254 248 259 251 243 235 243 248 230 230 257 255 216 208 198 198 196 185 176 165 149 162 165 155 177 190 199 191 167 161 183 172 160 212 215 212 203 193 184
294 281 292 270 259 255 258 248 249 254 250 237 231 244 221 209 200 249 205 194 193 191 191 177 170 171 145 165 169 141 200 170 160 162 151 164 159 182 202 206 186 220 213 203 194
293 286 286 277 268 252 254 252 243 249 249 245 227 223 215 217 239 253 190 187 187 191 193 182 176 163 167 169 136 160 177 183 165 156 146 155 182 201 253 253 233 235 203 210 206
300 291 281 279 268 249 249 250 240 240 244 245 237 217 214 223 239 229 195 188 189 188 187 189 194 183 142 173 184 175 147 148 168 162 144 151 150 182 72 28 217 216 211 209 211
307 301 293 283 292 276 241 239 242 234 235 241 237 230 224 230 227 206 193 190 190 189 192 192 195 183 158 126 150 138 112 113 180 178 147 160 228 148 355 303 230 214 218 212 211
301 312 298 303 299 306 239 238 237 235 225 236 237 228 240 236 233 205 189 185 190 194 196 196 193 185 173 132 57 84 62 144 203 150 185 147 237 164 19 52 67 138 151 219 219
289 297 306 298 288 299 223 237 233 234 221 219 231 202 241 224 212 206 196 187 174 177 177 177 172 154 132 109 58 8 180 188 191 197 136 157 182 139 10 41 56 62 133 173 211
295 302 306 301 301 300 279 226 236 227 212 192 195 167 234 222 205 195 187 185 158 159 147 164 153 109 88 127 190 181 176 196 184 212 160 149 221 105 13 35 36 28 50 195 181
302 302 305 306 309 302 306 205 202 219 195 187 200 185 309 205 188 189 180 170 158 158 149 171 142 196 188 178 111 143 129 140 191 191 143 200 236 57 350 33 29 24 31 152 189
300 310 308 309 309 306 274 294 197 225 203 213 209 204 140 168 164 185 175 162 154 156 126 107 221 189 138 147 125 125 122 120 71 68 113 142 263 94 37 56 32 27 38 55 176
305 310 308 311 308 309 285 289 198 236 249 211 212 206 206 199 202 188 180 169 135 140 187 170 213 150 143 154 145 157 154 174 153 120 58 19 288 208 164 107 65 49 53 56 85
316 316 314 318 316 310 310 325 225 196 227 250 183 226 207 169 224 193 183 170 178 170 132 205 132 157 141 180 143 166 182 130 129 104 183 16 264 262 187 173 67 44 51 57 73
316 319 317 316 307 312 317 318 202 147 211 205 178 176 183 172 141 187 182 182 163 164 137 217 158 146 155 193 157 188 133 125 108 99 101 300 79 254 127 228 187 89 77 77 81
316 319 318 314 310 313 316 316 189 172 216 171 146 162 140 154 146 130 165 169 133 114 52 120 148 146 158 65 115 146 90 55 60 89 31 200 157 263 192 195 149 149 121 107 101
314 312 310 304 292 297 319 344 300 219 169 172 171 162 163 154 127 154 171 167 151 115 153 103 137 75 132 84 3 102 111 49 22 13 220 343 123 244 179 184 168 155 141 124 117
319 312 309 296 288 271 263 64 254 233 198 144 144 168 176 145 150 163 157 187 252 106 129 148 220 174 183 173 174 184 167 148 181 192 189 90 212 260 66 111 143 143 137 131 126
323 316 320 311 278 209 126 149 288 283 217 156 123 161 151 169 131 144 188 191 189 186 140 133 217 100 127 143 154 193 196 149 104 26 83 193 278 202 130 120 135 144 144 135 131
324 326 328 310 207 172 92 185 239 245 314 212 158 189 169 174 119 177 166 189 183 194 223 200 116 312 167 120 51 166 159 89 25 140 214 251 270 236 197 186 172 159 149 140 134
330 321 266 350 182 178 204 200 212 234 231 251 156 166 188 168 146 176 186 164 175 181 160 140 94 278 143 213 161 139 186 70 117 141 158 159 248 222 207 183 171 163 158 151 144
313 270 264 270 213 229 211 204 235 209 224 248 199 139 170 170 163 180 186 204 182 159 185 181 118 148 201 292 324 173 178 147 133 206 136 141 261 25 280 170 162 163 162 157 150
284 269 265 254 241 238 248 265 259 231 190 205 242 212 179 165 163 163 193 192 165 175 180 172 181 99 13 353 359 209 193 157 120 99 193 152 244 12 175 155 167 157 163 161 155
285 302 295 223 222 242 268 263 239 236 239 201 202 155 124 149 25 176 140 162 170 186 154 153 135 199 210 195 137 187 190 172 131 156 187 221 177 211 165 163 163 165 167 166 160
283 264 269 299 298 261 257 297 263 219 211 184 214 202 169 136 113 146 112 117 57 152 88 150 184 139 126 141 135 171 175 174 195 216 190 219 194 199 192 180 173 162 165 166 162
313 308 299 271 287 272 257 229 221 218 188 225 171 167 139 168 187 183 142 165 174 189 140 63 172 117 107 154 142 172 188 193 206 209 232 140 239 349 157 152 159 166 166 165 163
337 318 271 265 271 276 265 283 282 191 267 199 142 119 138 218 146 147 129 120 152 150 135 124 127 117 220 79 110 325 211 189 190 184 202 196 196 140 152 168 173 167 168 167 165
Wind_Speed_850mb
36 30 39 40 40 37 40 38 27 20 24 22 19 20 22 25 25 31 39 25 34 20 28 24 27 28 26 17 12 10 8 6 11 13 7 18 11 12 9 10 14 18 6 6 35
34 40 30 39 40 40 37 39 40 26 20 24 20 19 20 26 26 41 25 26 25 29 31 32 35 33 17 15 12 8 7 17 10 10 8 18 13 21 10 11 12 17 16 12 34
47 34 45 32 36 41 39 36 39 40 23 20 21 18 18 20 19 29 37 32 35 31 28 29 32 25 10 16 12 11 10 10 11 10 12 17 10 15 15 6 19 27 29 24 36
41 59 56 44 40 34 43 40 34 39 37 21 18 17 18 20 14 10 26 41 39 36 33 36 40 19 11 13 17 10 8 14 12 13 12 14 12 8 19 4 5 13 23 30 38
35 37 49 41 39 45 37 42 36 33 38 31 19 16 20 19 25 10 23 45 44 40 39 38 45 19 11 13 15 9 11 14 10 13 9 10 4 4 9 14 19 7 22 34 36
34 38 48 53 30 36 44 43 38 34 32 36 26 18 25 12 22 23 27 45 44 40 44 39 27 21 12 13 7 26 17 14 11 8 5 6 4 3 3 16 18 20 14 27 36
33 33 37 64 51 25 46 39 39 36 30 32 32 21 26 40 14 24 32 43 43 38 43 41 14 19 20 10 11 19 10 4 5 9 5 7 2 3 14 11 7 13 20 23 32
34 34 36 41 50 40 40 38 35 36 31 26 30 22 18 27 39 25 35 41 44 40 34 37 24 14 4 23 10 7 8 8 3 11 4 8 5 6 19 14 20 8 4 21 29
35 38 37 33 45 44 35 38 31 36 30 24 25 20 13 21 34 38 36 36 39 36 32 32 29 12 13 12 8 9 8 7 5 12 7 6 7 10 19 13 13 7 3 5 16
36 37 38 36 34 47 24 38 26 32 28 19 18 15 30 24 35 49 43 35 35 39 33 23 11 7 5 7 14 15 9 5 9 13 6 9 8 4 17 16 13 10 3 7 11
32 34 38 47 35 40 33 22 16 15 40 23 28 11 2 32 28 45 51 52 39 33 12 12 8 17 22 13 4 12 10 10 1 5 6 10 7 3 10 13 17 15 8 3 15
31 34 36 39 43 35 41 18 32 6 13 58 25 55 15 23 14 42 56 29 22 12 14 8 22 13 15 11 9 9 9 5 5 5 4 4 9 4 7 7 11 13 13 7 7
33 33 34 33 38 35 27 45 28 33 8 17 76 49 35 30 13 50 63 25 10 16 17 16 6 27 15 11 15 5 13 10 11 6 6 2 10 6 1 8 11 16 15 15 9
32 32 33 32 32 24 30 34 42 11 7 11 23 34 40 26 10 37 68 24 7 18 16 8 6 21 15 13 13 13 12 14 17 8 6 4 8 7 6 4 6 12 17 19 19
31 32 34 32 32 33 46 41 21 20 9 16 21 19 52 34 32 27 67 16 16 14 16 15 18 18 10 12 13 9 13 14 9 10 8 2 5 7 3 9 7 7 13 17 21
30 32 32 31 34 34 36 50 27 12 18 11 17 20 24 12 11 20 27 15 15 9 8 5 4 8 11 9 8 25 16 16 10 7 1 11 11 9 11 12 10 10 14 19 24
33 35 34 32 26 30 39 45 7 14 8 13 13 24 42 16 11 13 21 15 14 12 8 4 5 2 11 18 10 5 12 5 5 2 10 3 8 15 6 7 14 25 26 25 28
33 40 44 42 43 36 4 7 8 3 17 3 14 35 35 25 5 16 28 28 10 11 10 14 5 15 8 10 20 14 11 12 15 10 7 3 13 11 4 12 34 36 35 34 33
44 45 47 42 16 31 19 4 9 4 9 15 15 42 9 9 15 13 21 36 26 20 15 12 8 3 3 7 11 12 9 10 14 5 5 8 11 3 9 11 27 37 39 39 39
54 50 23 11 12 36 5 17 13 14 24 7 11 17 22 31 12 15 26 16 16 20 5 16 9 3 5 9 7 7 16 7 3 12 9 6 7 10 24 26 23 27 39 42 42
42 27 9 10 25 17 7 16 21 37 35 14 7 9 12 27 15 32 33 4 17 21 4 9 9 3 6 13 18 7 6 6 10 7 11 7 12 7 18 34 35 36 49 53 49
27 7 8 16 7 6 12 11 12 17 36 19 6 8 18 35 19 22 27 33 46 33 24 12 11 9 11 1 1 2 11 11 10 10 2 5 11 3 4 31 52 49 58 54 50
12 22 13 17 6 6 7 13 12 11 18 15 12 7 8 18 14 8 26 2 37 36 41 20 7 8 7 8 5 7 10 9 9 7 15 12 10 6 9 31 50 56 60 58 53
13 7 10 10 12 8 10 24 16 30 17 15 12 5 9 9 6 23 10 3 9 19 14 30 8 21 27 11 14 12 12 10 11 6 10 13 9 7 16 30 43 57 71 64 57
6 8 10 9 7 16 8 11 20 16 23 28 9 27 13 10 8 10 8 7 7 12 8 13 15 9 4 11 10 13 22 29 24 35 18 18 21 18 36 39 58 59 68 66 57
9 11 11 19 27 19 19 10 26 27 26 15 15 9 9 16 18 18 19 11 13 5 10 3 7 7 3 8 10 9 14 38 47 26 5 11 9 5 31 42 50 65 71 66 61
31 34 16 16 7 12 4 7 15 20 10 9 17 12 8 8 7 22 17 20 23 22 9 12 11 6 7 3 9 5 19 25 14 9 28 19 14 14 23 40 62 67 72 75 66
Wind_Direction_850mb
269 264 258 263 253 248 258 250 249 234 242 241 241 244 245 236 231 229 227 218 213 197 192 189 181 171 165 161 150 141 74 175 196 159 207 161 171 179 186 160 180 187 188 168 177
274 262 260 253 263 254 248 259 251 245 234 239 247 245 240 239 242 243 215 214 206 205 197 184 178 165 160 154 156 113 123 206 195 188 189 177 179 170 161 171 201 198 202 186 176
286 286 266 270 256 263 254 248 259 251 243 235 243 248 230 230 257 255 216 208 198 198 196 185 176 165 149 162 165 155 177 190 199 191 167 161 183 172 160 212 215 212 203 193 184
294 281 292 270 259 255 258 248 249 254 250 237 231 244 221 209 200 249 205 194 193 191 191 177 170 171 145 165 169 141 200 170 160 162 151 164 159 182 202 206 186 220 213 203 194
293 286 286 277 268 252 254 252 243 249 249 245 227 223 215 217 239 253 190 187 187 191 193 182 176 163 167 169 136 160 177 183 165 156 146 155 182 201 253 253 233 235 203 210 206
300 291 281 279 268 249 249 250 240 240 244 245 237 217 214 223 239 229 195 188 189 188 187 189 194 183 142 173 184 175 147 148 168 162 144 151 150 182 72 28 217 216 211 209 211
307 301 293 283 292 276 241 239 242 234 235 241 237 230 224 230 227 206 193 190 190 189 192 192 195 183 158 126 150 138 112 113 180 178 147 160 228 148 355 303 230 214 218 212 211
301 312 298 303 299 306 239 238 237 235 225 236 237 228 240 236 233 205 189 185 190 194 196 196 193 185 173 132 57 84 62 144 203 150 185 147 237 164 19 52 67 138 151 219 219
289 297 306 298 288 299 223 237 233 234 221 219 231 202 241 224 212 206 196 187 174 177 177 177 172 154 132 109 58 8 180 188 191 197 136 157 182 139 10 41 56 62 133 173 211
295 302 306 301 301 300 279 226 236 227 212 192 195 167 234 222 205 195 187 185 158 159 147 164 153 109 88 127 190 181 176 196 184 212 160 149 221 105 13 35 36 28 50 195 181
302 302 305 306 309 302 306 205 202 219 195 187 200 185 309 205 188 189 180 170 158 158 149 171 142 196 188 178 111 143 129 140 191 191 143 200 236 57 350 33 29 24 31 152 189
300 310 308 309 309 306 274 294 197 225 203 213 209 204 140 168 164 185 175 162 154 156 126 107 221 189 138 147 125 125 122 120 71 68 113 142 263 94 37 56 32 27 38 55 176
305 310 308 311 308 309 285 289 198 236 249 211 212 206 206 199 202 188 180 169 135 140 187 170 213 150 143 154 145 157 154 174 153 120 58 19 288 208 164 107 65 49 53 56 85
316 316 314 318 316 310 310 325 225 196 227 250 183 226 207 169 224 193 183 170 178 170 132 205 132 157 141 180 143 166 182 130 129 104 183 16 264 262 187 173 67 44 51 57 73
316 319 317 316 307 312 317 318 202 147 211 205 178 176 183 172 141 187 182 182 163 164 137 217 158 146 155 193 157 188 133 125 108 99 101 300 79 254 127 228 187 89 77 77 81
316 319 318 314 310 313 316 316 189 172 216 171 146 162 140 154 146 130 165 169 133 114 52 120 148 146 158 65 115 146 90 55 60 89 31 200 157 263 192 195 149 149 121 107 101
314 312 310 304 292 297 319 344 300 219 169 172 171 162 163 154 127 154 171 167 151 115 153 103 137 75 132 84 3 102 111 49 22 13 220 343 123 244 179 184 168 155 141 124 117
319 312 309 296 288 271 263 64 254 233 198 144 144 168 176 145 150 163 157 187 252 106 129 148 220 174 183 173 174 184 167 148 181 192 189 90 212 260 66 111 143 143 137 131 126
323 316 320 311 278 209 126 149 288 283 217 156 123 161 151 169 131 144 188 191 189 186 140 133 217 100 127 143 154 193 196 149 104 26 83 193 278 202 130 120 135 144 144 135 131
324 326 328 310 207 172 92 185 239 245 314 212 158 189 169 174 119 177 166 189 183 194 223 200 116 312 167 120 51 166 159 89 25 140 214 251 270 236 197 186 172 159 149 140 134
330 321 266 350 182 178 204 200 212 234 231 251 156 166 188 168 146 176 186 164 175 181 160 140 94 278 143 213 161 139 186 70 117 141 158 159 248 222 207 183 171 163 158 151 144
313 270 264 270 213 229 211 204 235 209 224 248 199 139 170 170 163 180 186 204 182 159 185 181 118 148 201 292 324 173 178 147 133 206 136 141 261 25 280 170 162 163 162 157 150
284 269 265 254 241 238 248 265 259 231 190 205 242 212 179 165 163 163 193 192 165 175 180 172 181 99 13 353 359 209 193 157 120 99 193 152 244 12 175 155 167 157 163 161 155
285 302 295 223 222 242 268 263 239 236 239 201 202 155 124 149 25 176 140 162 170 186 154 153 135 199 210 195 137 187 190 172 131 156 187 221 177 211 165 163 163 165 167 166 160
283 264 269 299 298 261 257 297 263 219 211 184 214 202 169 136 113 146 112 117 57 152 88 150 184 139 126 141 135 171 175 174 195 216 190 219 194 199 192 180 173 162 165 166 162
313 308 299 271 287 272 257 229 221 218 188 225 171 167 139 168 187 183 142 165 174 189 140 63 172 117 107 154 142 172 188 193 206 209 232 140 239 349 157 152 159 166 166 165 163
337 318 271 265 271 276 265 283 282 191 267 199 142 119 138 218 146 147 129 120 152 150 135 124 127 117 220 79 110 325 211 189 190 184 202 196 196 140 152 168 173 167 168 167 165